Flag for Czech Republic Weather past 2 weeks in Brno, Czech Republic

Now
60 °F

Overcast.


Feels Like: 60 °F
Forecast: 58 / 77 °F
Wind: 6 mph from Northeast

Location: Brno / Turany

Current Time: Sep 3, 2014 at 9:52:10 AM

Latest Report: Sep 3, 2014 at 9:00 AM


Visibility: 8 mi

Pressure: 30.08 "Hg

Humidity: 85%

Dew point: 56 °F

Location of BrnoLocation

Historic Weather in Brno — Graph

°F

Brno temperature yesterday

Maximum temperature yesterday: 60 °F (at 5:00 PM)
Minimum temperature yesterday: 56 °F (at 6:00 AM)
Average temperature yesterday: 58 °F

Past Weeks' High & Low Weather Summary

 TemperatureHumidityPressure
High73 °F (Aug 29, 4:00 PM)98% (Aug 31, 4:00 AM)30.14 "Hg (Aug 31, 4:00 AM)
Low44 °F (Aug 25, 6:00 AM)40% (Aug 28, 5:00 PM)29.71 "Hg (Aug 26, 6:00 PM)
Average59 °F81%29.99 "Hg
* Reported Aug 19 8:00 AM — Sep 3 8:00 AM, Brno, Weather by CustomWeather, © 2014

Note: Actual official high and low records may vary slightly from our data, if they occured in-between our weather recording intervals... More about our weather records

Advertising

Brno weather history for previous 24 hours

 ConditionsComfort  
Time TempWeatherWind HumidityBarometerVisibility
8:00 AM
Sep 3
60 °FOvercast.3 mph86%30.07 "Hg6 mi
7:00 AM60 °FFog.5 mph87%30.07 "Hg6 mi
6:00 AM61 °FOvercast.3 mph85%30.06 "Hg6 mi
5:00 AM60 °FOvercast.5 mph87%30.06 "Hg6 mi
4:00 AM59 °FOvercast.6 mph89%30.06 "Hg6 mi
3:00 AM61 °FOvercast.6 mph86%30.06 "Hg6 mi
2:00 AM59 °FOvercast.5 mph88%30.07 "Hg7 mi
1:00 AM58 °FOvercast.5 mph90%30.07 "Hg7 mi
12:00 AM60 °FOvercast.3 mph86%30.07 "Hg7 mi
11:00 PM
Sep 2
58 °FOvercast.2 mph90%30.08 "Hg9 mi
10:00 PM59 °FOvercast.2 mph90%30.07 "Hg12 mi
9:00 PM59 °FOvercast.2 mph90%30.06 "Hg12 mi
8:00 PM59 °FLight rain. Overcast.2 mph91%30.05 "Hg11 mi
7:00 PM60 °FLight rain. Low clouds.3 mph91%30.03 "Hg7 mi
6:00 PM60 °FLight rain. Low clouds.3 mph91%30.02 "Hg5 mi
5:00 PM60 °FLight rain. Low clouds.3 mph90%30.02 "Hg6 mi
4:00 PM60 °FLight rain. Low clouds.5 mph89%30.01 "Hg5 mi
3:00 PM59 °FLight rain. Low clouds.5 mph89%30.01 "Hg4 mi
2:00 PM59 °FLight rain. Low clouds.6 mph90%30.01 "Hg5 mi
1:00 PM59 °FLight rain. Low clouds.5 mph88%30.01 "Hg6 mi
12:00 PM58 °FLight rain. Low clouds.5 mph89%30.01 "Hg6 mi
11:00 AM58 °FLight rain. Low clouds.7 mph93%30.01 "Hg4 mi
10:00 AM57 °FLight rain. Low clouds.5 mph94%30.00 "Hg2 mi
9:00 AM56 °FLight rain. Low clouds.6 mph95%29.98 "Hg2 mi
Weather by CustomWeather, © 2014

See weather overviewHow to use our weather pages